Overview Statistics Trail Chart Weather Telemetry Raw packets
 

This is the latest recevied weather packets stored in our database for station/object KQ4KX. If no packets are shown the sender has not sent any weather packets the latest 10 day(s).

<< 104 105 106 107 >>
Time Temp. Humidity Pressure Rain* Wind** Luminosity Snow
1787801466 23.89° C 100% 1017.2 hPa 0 mm - - -
1787801234 23.89° C 100% 1017.2 hPa 0 mm - - -
1787801167 23.89° C 100% 1017.2 hPa 0 mm - - -
1787800931 23.89° C 100% 1017.1 hPa 0 mm - - -
1787800836 23.89° C 100% 1017.1 hPa 0 mm - - -
1787800633 23.89° C 100% 1017.2 hPa 0 mm - - -
1787800536 23.89° C 100% 1017.2 hPa 0 mm - - -
1787800321 23.33° C 100% 1017.2 hPa 0 mm - - -
1787800236 23.33° C 100% 1017.2 hPa 0 mm - - -
1787799937 23.33° C 100% 1017.2 hPa 0 mm - - -
1787798977 23.89° C 100% 1017.1 hPa 0 mm - - -
1787798346 23.89° C 100% 1017.1 hPa 0.25 mm - - -
1787798016 23.89° C 100% 1017.2 hPa 0.51 mm - - -
1787797525 23.89° C 100% 1017.2 hPa 1.52 mm - - -
1787797386 23.89° C 100% 1017.2 hPa 1.52 mm - - -
1787797086 23.89° C 100% 1017 hPa 3.05 mm - - -
1787796456 23.33° C 100% 1017 hPa 6.35 mm - - -
1787795857 23.33° C 99% 1017.1 hPa 9.4 mm - - -
1787795557 23.33° C 99% 1016.9 hPa 11.43 mm - - -
1787795256 23.33° C 100% 1016.7 hPa 16 mm - - -
1787794356 22.78° C 99% 1016.9 hPa 37.85 mm - - -
1787794056 22.78° C 99% 1017.2 hPa 43.18 mm - - -

* Rain latest hour (hover to see other rain measurements)
** Current wind speed in m/s (hover to see current wind gust speed)